Pellston, MI

8:12 AM EDT on July 28, 2017 (GMT -0400)
Pellston Regional Airport Of Emmet County

Weather History for KPLN - January, 2014

Change the Weather History Date:

Monday, January 20, 2014

  Actual Average Record
Temperature  
Mean Temperature 2 °F -  
Max Temperature 12 °F 26 °F 39 °F (1993)
Min Temperature -14 °F 4 °F -23 °F (1970)
Degree Days  
Heating Degree Days 64    
Moisture  
Dew Point -4 °F    
Average Humidity 73    
Maximum Humidity 87    
Minimum Humidity 55    
Precipitation  
Precipitation 0.00 in - - ()
Sea Level Pressure  
Sea Level Pressure 29.94 in    
Wind  
Wind Speed 7 mph (North)    
Max Wind Speed 13 mph    
Max Gust Speed -    
Visibility 9 miles    
Events Snow    
Averages and records for this station are not official NWS values.
T = Trace of Precipitation, MM = Missing Value Source: NWS Daily Summary

Daily Weather History Graph

Daily Weather History Graph

Search for Another Location

Airport or City:

Trip Planner

Search our weather history database for the weather conditions in past years. The results will help you decide how hot, cold, wet, or windy it might be!

Date:

Astronomy

Jan. 20, 2014 Rise Set
Actual Time 8:12 AM EST 5:28 PM EST
Civil Twilight 7:39 AM EST 6:01 PM EST
Nautical Twilight 7:03 AM EST 6:37 PM EST
Astronomical Twilight 6:27 AM EST 7:13 PM EST
Moon 10:18 PM EST (1/20) 9:57 AM EST (1/20)
Length of Visible Light 10h 21m
Length of Day
9h 16m
Waning Gibbous, 83% of the Moon is Illuminated
Jan 20
Waning Gibbous
Jan 24
Last Quarter
Jan 30
New
Feb 6
First Quarter
Feb 14
Full

Hourly Weather History & Observations

Time (EST) Temp. Windchill Dew Point Humidity Pressure Visibility Wind Dir Wind Speed Gust Speed Precip Events Conditions
12:54 AM 10.0 °F 0.4 °F 3.9 °F 76% 29.62 in 8.0 mi NNW 5.8 mph - 0.00 in Snow Light Snow
1:20 AM 9.0 °F 0.6 °F 5.0 °F 84% 29.58 in 3.0 mi NW 4.6 mph - 0.00 in Snow Light Snow
1:54 AM 12.0 °F -2.0 °F 6.1 °F 77% 29.64 in 5.0 mi NNE 11.5 mph - 0.00 in Snow Light Snow
2:54 AM 10.9 °F -2.6 °F 3.9 °F 73% 29.68 in 9.0 mi North 10.4 mph - 0.00 in   Overcast
3:54 AM 9.0 °F -3.2 °F 1.9 °F 73% 29.71 in 10.0 mi NNE 8.1 mph - N/A   Overcast
4:38 AM 8.1 °F -4.3 °F 1.9 °F 76% 29.70 in 10.0 mi North 8.1 mph - N/A   Overcast
4:54 AM 8.1 °F -3.2 °F 1.0 °F 73% 29.76 in 10.0 mi NNE 6.9 mph - N/A   Overcast
5:07 AM 8.1 °F -3.2 °F 1.0 °F 73% 29.73 in 10.0 mi NNE 6.9 mph - N/A   Overcast
5:54 AM 6.1 °F -8.7 °F -0.0 °F 76% 29.81 in 10.0 mi North 10.4 mph - N/A   Overcast
6:47 AM 6.1 °F -5.6 °F -0.9 °F 73% 29.79 in 10.0 mi North 6.9 mph - N/A   Overcast
6:54 AM 6.1 °F -5.6 °F -0.9 °F 73% 29.83 in 10.0 mi North 6.9 mph - N/A   Overcast
7:54 AM 5.0 °F -8.1 °F -2.0 °F 73% 29.86 in 10.0 mi North 8.1 mph - N/A   Overcast
8:18 AM 3.9 °F -11.3 °F -2.0 °F 76% 29.81 in 10.0 mi NNE 10.4 mph - N/A   Overcast
8:45 AM 3.9 °F -11.3 °F -2.9 °F 73% 29.82 in 10.0 mi North 10.4 mph - N/A   Overcast
8:54 AM 3.9 °F -11.3 °F -2.9 °F 73% 29.88 in 10.0 mi NNE 10.4 mph - N/A   Overcast
9:54 AM 3.0 °F -13.3 °F -4.0 °F 73% 29.93 in 10.0 mi NNE 11.5 mph - N/A   Overcast
10:54 AM 3.0 °F -9.3 °F -5.1 °F 69% 29.97 in 10.0 mi North 6.9 mph - N/A   Overcast
11:54 AM 3.9 °F -6.9 °F -5.1 °F 66% 29.99 in 10.0 mi North 5.8 mph - N/A   Mostly Cloudy
12:54 PM 5.0 °F -2.1 °F -5.1 °F 63% 30.00 in 10.0 mi NNE 3.5 mph - N/A   Partly Cloudy
1:54 PM 6.1 °F -8.7 °F -6.0 °F 58% 30.00 in 10.0 mi North 10.4 mph - N/A   Clear
2:54 PM 6.1 °F -10.2 °F -7.1 °F 55% 30.01 in 10.0 mi North 12.7 mph - N/A   Clear
3:54 PM 5.0 °F -10.8 °F -7.1 °F 58% 30.05 in 10.0 mi NNW 11.5 mph - N/A   Partly Cloudy
4:54 PM 6.1 °F -4.3 °F -5.1 °F 60% 30.08 in 10.0 mi NNW 5.8 mph - N/A   Overcast
5:34 PM 5.0 °F -8.1 °F -4.0 °F 66% 30.04 in 1.0 mi NNW 8.1 mph - N/A   Haze
5:42 PM 3.0 °F -9.3 °F -4.0 °F 73% 30.04 in 0.8 mi NW 6.9 mph - 0.00 in Snow Light Snow
5:44 PM 1.9 °F -10.6 °F -5.1 °F 72% 30.04 in 2.5 mi NW 6.9 mph - 0.00 in   Haze
5:51 PM 1.4 °F -9.9 °F -5.8 °F 72% 30.04 in 10.0 mi NNW 5.8 mph - 0.00 in   Mostly Cloudy
5:54 PM 1.9 °F -9.2 °F -5.1 °F 72% 30.11 in 10.0 mi NW 5.8 mph - 0.00 in   Mostly Cloudy
6:23 PM -0.0 °F -13.0 °F -6.0 °F 76% 30.06 in 2.5 mi NW 6.9 mph - N/A   Haze
6:30 PM 1.0 °F -10.3 °F -5.1 °F 75% 30.06 in 10.0 mi WNW 5.8 mph - N/A   Clear
6:54 PM -2.9 °F -16.5 °F -8.0 °F 79% 30.13 in 10.0 mi NW 6.9 mph - N/A   Clear
7:54 PM -6.0 °F -18.6 °F -9.9 °F 83% 30.16 in 10.0 mi WNW 5.8 mph - N/A   Clear
8:54 PM -7.1 °F - -11.0 °F 83% 30.16 in 10.0 mi Calm Calm - N/A   Partly Cloudy
9:54 PM -9.0 °F - -14.1 °F 79% 30.17 in 10.0 mi Calm Calm - N/A   Mostly Cloudy
10:15 PM -8.0 °F -19.2 °F -13.0 °F 79% 30.11 in 6.0 mi NNE 4.6 mph - N/A   Haze
10:54 PM -7.1 °F -21.4 °F -9.9 °F 87% 30.19 in 10.0 mi North 6.9 mph - N/A   Clear
11:54 PM -14.1 °F - -18.9 °F 79% 30.22 in 10.0 mi Calm Calm - N/A   Clear